Tracking 27086 objects as of 22-Mar-2023
HD Live streaming from Space Station
objects crossing your sky now

STARLINK-3296

Track STARLINK-3296 now!
10-day predictions
STARLINK-3296 is classified as:


NORAD ID: 50168
Int'l Code: 2021-125N
Perigee: 543.9 km
Apogee: 549.8 km
Inclination: 53.2 °
Period: 95.4 minutes
Semi major axis: 6917 km
RCS: Unknown
Launch date: December 18, 2021
Source: United States (US)
Launch site: AIR FORCE WESTERN TEST RANGE (AFWTR)
Your satellite tracking list
Your tracking list is empty




NASA's NSSDC Master Catalog

Two Line Element Set (TLE):
1 50168U 21125N   23080.69130272  .00000611  00000-0  56508-4 0  9990
2 50168  53.2189  75.3909 0004304  15.6847 344.4278 15.08848175 72957
Source of the keplerian elements: AFSPC